TGW645 VTSP-WSSS

Flight info

Callsign TGW645
Flight time N/A
Altitude 35000
Route REBED1A REBED B579 VPL Y503 RINBA Y507 MAKNA Y511 TOPOR A464 ARAMA DCT TEBUN TEBUN1B
Aircraft A21N/M-SDE2E3FGHIJ1RWXY/LB1

Departure

Time 2026-05-06 13:49
Airport Phuket International Airport (VTSP)

Arrival

Time N/A
Airport Singapore Changi Airport (WSSS)
Time Latitude Longitude Altitude Speed Heading
2026-05-06 13:46 8.10636 98.30384 32 ft 0 kts 15°
2026-05-06 13:46 8.10640 98.30385 32 ft 2 kts 15°
2026-05-06 13:46 8.10673 98.30394 32 ft 7 kts 16°
2026-05-06 13:46 8.10735 98.30411 32 ft 11 kts 15°
2026-05-06 13:47 8.10822 98.30435 32 ft 15 kts 15°
2026-05-06 13:47 8.10931 98.30463 32 ft 18 kts 14°
2026-05-06 13:47 8.11032 98.30454 32 ft 13 kts 301°
2026-05-06 13:47 8.11054 98.30361 32 ft 13 kts 323°
2026-05-06 13:48 8.11117 98.30348 32 ft 11 kts 354°
2026-05-06 13:48 8.11173 98.30342 32 ft 7 kts 355°
2026-05-06 13:48 8.11200 98.30383 32 ft 8 kts 84°
2026-05-06 13:48 8.11204 98.30437 32 ft 14 kts 84°
2026-05-06 13:49 8.11231 98.30713 34 ft 74 kts 84°
2026-05-06 13:49 8.11301 98.31458 41 ft 136 kts 85°
2026-05-06 13:49 8.11401 98.32549 199 ft 165 kts 85°
2026-05-06 13:49 8.11504 98.33685 770 ft 161 kts 85°
2026-05-06 13:50 8.11457 98.34821 1245 ft 171 kts 108°
2026-05-06 13:50 8.10744 98.35844 1527 ft 189 kts 137°
2026-05-06 13:50 8.09661 98.36685 1991 ft 205 kts 144°
2026-05-06 13:50 8.08443 98.37541 2495 ft 221 kts 144°
2026-05-06 13:51 8.07115 98.38470 2910 ft 242 kts 144°
2026-05-06 13:51 8.05682 98.39474 3436 ft 258 kts 144°
2026-05-06 13:51 8.04177 98.40528 4098 ft 267 kts 144°
2026-05-06 13:51 8.02639 98.41604 4876 ft 271 kts 144°
2026-05-06 13:52 8.01080 98.42691 5667 ft 274 kts 144°
2026-05-06 13:52 7.99510 98.43791 6442 ft 277 kts 144°
2026-05-06 13:52 7.97918 98.44908 7187 ft 281 kts 144°
2026-05-06 13:52 7.96300 98.46040 7897 ft 285 kts 144°
2026-05-06 13:53 7.94661 98.47189 8589 ft 289 kts 144°
2026-05-06 13:53 7.92995 98.48356 9254 ft 293 kts 144°
2026-05-06 13:53 7.91314 98.49534 9919 ft 296 kts 144°
2026-05-06 13:53 7.89594 98.50737 10372 ft 308 kts 144°
2026-05-06 13:54 7.87785 98.52003 10644 ft 325 kts 144°
2026-05-06 13:54 7.85875 98.53339 10886 ft 342 kts 144°
2026-05-06 13:54 7.83870 98.54741 11119 ft 359 kts 144°
2026-05-06 13:54 7.81773 98.56208 11331 ft 375 kts 144°
2026-05-06 13:55 7.79596 98.57728 11538 ft 390 kts 144°
2026-05-06 13:55 7.77325 98.59314 11717 ft 403 kts 144°